Time,TemperatureF,DewpointF,PressureIn,WindDirection,WindDirectionDegrees,WindSpeedMPH,WindSpeedGustMPH,Humidity,HourlyPrecipIn,Conditions,Clouds,dailyrainin,SoftwareType,DateUTC
2013-01-12 00:02:00,29.0,23.0,-100.00,West,259,7.0,8.0,78,-99.99,,,-99.99,,2013-01-12 08:02:00,
2013-01-12 00:11:00,29.0,23.0,-100.00,WSW,253,7.0,8.0,77,-99.99,,,-99.99,,2013-01-12 08:11:00,
2013-01-12 00:22:00,29.0,24.0,-100.00,WSW,239,6.0,8.0,80,-99.99,,,-99.99,,2013-01-12 08:22:00,
2013-01-12 00:32:00,29.0,25.0,-100.00,SW,229,5.0,6.0,83,-99.99,,,-99.99,,2013-01-12 08:32:00,
2013-01-12 00:42:00,29.0,25.0,-100.00,SW,230,5.0,7.0,86,-99.99,,,-99.99,,2013-01-12 08:42:00,
2013-01-12 00:52:00,29.0,26.0,-100.00,WSW,239,8.0,11.0,89,-99.99,,,-99.99,,2013-01-12 08:52:00,
2013-01-12 01:02:00,29.0,26.0,-100.00,WSW,239,8.0,11.0,89,-99.99,,,-99.99,,2013-01-12 09:02:00,
2013-01-12 01:11:00,28.0,26.0,-100.00,SW,219,9.0,12.0,91,-99.99,,,-99.99,,2013-01-12 09:11:00,
2013-01-12 01:22:00,28.0,26.0,-100.00,SW,218,7.0,11.0,93,-99.99,,,-99.99,,2013-01-12 09:22:00,
2013-01-12 01:32:00,28.0,27.0,-100.00,SW,216,6.0,10.0,95,-99.99,,,-99.99,,2013-01-12 09:32:00,
2013-01-12 01:42:00,28.0,27.0,-100.00,SW,227,7.0,10.0,95,-99.99,,,-99.99,,2013-01-12 09:42:00,
2013-01-12 01:52:00,28.0,27.0,-100.00,SW,227,7.0,10.0,95,-99.99,,,-99.99,,2013-01-12 09:52:00,
2013-01-12 02:02:00,28.0,27.0,-100.00,West,262,6.0,11.0,95,-99.99,,,-99.99,,2013-01-12 10:02:00,
2013-01-12 02:11:00,29.0,28.0,-100.00,WSW,238,9.0,15.0,95,-99.99,,,-99.99,,2013-01-12 10:11:00,
2013-01-12 02:22:00,29.0,28.0,-100.00,WSW,251,7.0,13.0,95,-99.99,,,-99.99,,2013-01-12 10:22:00,
2013-01-12 02:32:00,29.0,28.0,-100.00,WSW,257,7.0,12.0,95,-99.99,,,-99.99,,2013-01-12 10:32:00,
2013-01-12 02:42:00,28.0,27.0,-100.00,WSW,243,9.0,15.0,96,-99.99,,,-99.99,,2013-01-12 10:42:00,
2013-01-12 02:52:00,28.0,27.0,-100.00,WSW,244,11.0,15.0,96,-99.99,,,-99.99,,2013-01-12 10:52:00,
2013-01-12 03:02:00,28.0,27.0,-100.00,WSW,250,12.0,16.0,97,-99.99,,,-99.99,,2013-01-12 11:02:00,
2013-01-12 03:12:00,28.0,27.0,-100.00,WSW,253,13.0,18.0,97,-99.99,,,-99.99,,2013-01-12 11:12:00,
2013-01-12 03:22:00,28.0,27.0,-100.00,WSW,258,13.0,19.0,97,-99.99,,,-99.99,,2013-01-12 11:22:00,
2013-01-12 03:32:00,28.0,28.0,-100.00,West,261,11.0,18.0,98,-99.99,,,-99.99,,2013-01-12 11:32:00,
2013-01-12 03:42:00,28.0,28.0,-100.00,West,260,11.0,16.0,98,-99.99,,,-99.99,,2013-01-12 11:42:00,
2013-01-12 03:52:00,28.0,28.0,-100.00,West,261,11.0,17.0,98,-99.99,,,-99.99,,2013-01-12 11:52:00,
2013-01-12 04:02:00,28.0,28.0,-100.00,WSW,257,9.0,14.0,98,-99.99,,,-99.99,,2013-01-12 12:02:00,
2013-01-12 04:11:00,28.0,28.0,-100.00,West,271,9.0,13.0,98,-99.99,,,-99.99,,2013-01-12 12:11:00,
2013-01-12 04:22:00,28.0,28.0,-100.00,West,274,9.0,13.0,98,-99.99,,,-99.99,,2013-01-12 12:22:00,
2013-01-12 04:32:00,28.0,28.0,-100.00,West,263,9.0,15.0,98,-99.99,,,-99.99,,2013-01-12 12:32:00,
2013-01-12 04:42:00,28.0,28.0,-100.00,West,263,9.0,15.0,98,-99.99,,,-99.99,,2013-01-12 12:42:00,
2013-01-12 04:52:00,28.0,28.0,-100.00,West,268,9.0,12.0,98,-99.99,,,-99.99,,2013-01-12 12:52:00,
2013-01-12 05:02:00,27.0,27.0,-100.00,West,269,9.0,12.0,98,-99.99,,,-99.99,,2013-01-12 13:02:00,
2013-01-12 05:12:00,27.0,27.0,-100.00,West,266,9.0,13.0,98,-99.99,,,-99.99,,2013-01-12 13:12:00,
2013-01-12 05:22:00,27.0,26.0,-100.00,West,264,10.0,13.0,97,-99.99,,,-99.99,,2013-01-12 13:22:00,
2013-01-12 05:32:00,26.0,24.0,-100.00,WNW,288,4.0,10.0,91,-99.99,,,-99.99,,2013-01-12 13:32:00,
2013-01-12 05:42:00,26.0,24.0,-100.00,WNW,288,4.0,10.0,91,-99.99,,,-99.99,,2013-01-12 13:42:00,
2013-01-12 05:52:00,27.0,23.0,-100.00,West,262,8.0,11.0,83,-99.99,,,-99.99,,2013-01-12 13:52:00,
2013-01-12 06:02:00,27.0,23.0,-100.00,West,262,8.0,11.0,83,-99.99,,,-99.99,,2013-01-12 14:02:00,
2013-01-12 06:12:00,26.0,21.0,-100.00,WSW,257,8.0,10.0,82,-99.99,,,-99.99,,2013-01-12 14:12:00,
2013-01-12 06:22:00,26.0,22.0,-100.00,WSW,255,8.0,11.0,83,-99.99,,,-99.99,,2013-01-12 14:22:00,
2013-01-12 06:32:00,27.0,23.0,-100.00,West,274,5.0,9.0,83,-99.99,,,-99.99,,2013-01-12 14:32:00,
2013-01-12 06:43:00,26.0,22.0,-100.00,West,279,4.0,8.0,83,-99.99,,,-99.99,,2013-01-12 14:43:00,
2013-01-12 06:53:00,26.0,21.0,-100.00,NNW,347,2.0,7.0,81,-99.99,,,-99.99,,2013-01-12 14:53:00,
2013-01-12 07:03:00,26.0,21.0,-100.00,NNW,347,2.0,7.0,81,-99.99,,,-99.99,,2013-01-12 15:03:00,
2013-01-12 07:12:00,26.0,19.0,-100.00,NNE,14,3.0,5.0,74,-99.99,,,-99.99,,2013-01-12 15:12:00,
2013-01-12 07:22:00,26.0,18.0,-100.00,NNE,15,4.0,5.0,70,-99.99,,,-99.99,,2013-01-12 15:22:00,
2013-01-12 07:33:00,26.0,18.0,-100.00,NNW,329,4.0,6.0,71,-99.99,,,-99.99,,2013-01-12 15:33:00,
2013-01-12 07:42:00,26.0,18.0,-100.00,NNW,329,4.0,6.0,71,-99.99,,,-99.99,,2013-01-12 15:42:00,
2013-01-12 07:52:00,26.0,17.0,-100.00,North,359,3.0,5.0,68,-99.99,,,-99.99,,2013-01-12 15:52:00,
2013-01-12 08:02:00,27.0,18.0,-100.00,NNE,33,0.0,1.0,68,-99.99,,,-99.99,,2013-01-12 16:02:00,
2013-01-12 08:12:00,28.0,18.0,-100.00,South,180,2.0,3.0,66,-99.99,,,-99.99,,2013-01-12 16:12:00,
2013-01-12 08:22:00,27.0,19.0,-100.00,SSW,200,3.0,4.0,72,-99.99,,,-99.99,,2013-01-12 16:22:00,
2013-01-12 08:32:00,29.0,22.0,-100.00,SSE,160,3.0,6.0,74,-99.99,,,-99.99,,2013-01-12 16:32:00,
2013-01-12 08:42:00,31.0,23.0,-100.00,SE,125,3.0,5.0,71,-99.99,,,-99.99,,2013-01-12 16:42:00,
2013-01-12 08:52:00,32.0,24.0,-100.00,East,99,3.0,5.0,71,-99.99,,,-99.99,,2013-01-12 16:52:00,
2013-01-12 09:02:00,31.0,22.0,-100.00,East,87,3.0,5.0,70,-99.99,,,-99.99,,2013-01-12 17:02:00,
2013-01-12 09:12:00,32.0,23.0,-100.00,East,95,3.0,6.0,69,-99.99,,,-99.99,,2013-01-12 17:12:00,
2013-01-12 09:22:00,32.0,23.0,-100.00,ENE,71,5.0,7.0,70,-99.99,,,-99.99,,2013-01-12 17:22:00,
2013-01-12 09:32:00,32.0,22.0,-100.00,East,92,6.0,10.0,65,-99.99,,,-99.99,,2013-01-12 17:32:00,
2013-01-12 09:42:00,32.0,22.0,-100.00,East,92,6.0,10.0,65,-99.99,,,-99.99,,2013-01-12 17:42:00,
2013-01-12 09:53:00,33.0,20.0,-100.00,ENE,68,7.0,12.0,59,-99.99,,,-99.99,,2013-01-12 17:53:00,
2013-01-12 10:02:00,33.0,20.0,-100.00,ENE,68,7.0,12.0,59,-99.99,,,-99.99,,2013-01-12 18:02:00,
2013-01-12 10:12:00,34.0,15.0,-100.00,NE,47,10.0,15.0,46,-99.99,,,-99.99,,2013-01-12 18:12:00,
2013-01-12 10:22:00,34.0,15.0,-100.00,NE,45,10.0,15.0,45,-99.99,,,-99.99,,2013-01-12 18:22:00,
2013-01-12 10:33:00,35.0,15.0,-100.00,NE,50,10.0,15.0,44,-99.99,,,-99.99,,2013-01-12 18:33:00,
2013-01-12 10:42:00,35.0,16.0,-100.00,NE,54,10.0,15.0,45,-99.99,,,-99.99,,2013-01-12 18:42:00,
2013-01-12 10:52:00,35.0,16.0,-100.00,ENE,66,11.0,15.0,46,-99.99,,,-99.99,,2013-01-12 18:52:00,
2013-01-12 11:02:00,35.0,16.0,-100.00,ENE,72,11.0,15.0,46,-99.99,,,-99.99,,2013-01-12 19:02:00,
2013-01-12 11:12:00,35.0,16.0,-100.00,NE,50,9.0,13.0,46,-99.99,,,-99.99,,2013-01-12 19:12:00,
2013-01-12 11:22:00,35.0,15.0,-100.00,ENE,60,8.0,13.0,44,-99.99,,,-99.99,,2013-01-12 19:22:00,
2013-01-12 11:32:00,36.0,16.0,-100.00,ENE,60,8.0,14.0,43,-99.99,,,-99.99,,2013-01-12 19:32:00,
2013-01-12 11:42:00,35.0,14.0,-100.00,ENE,57,8.0,14.0,42,-99.99,,,-99.99,,2013-01-12 19:42:00,
2013-01-12 11:52:00,35.0,14.0,-100.00,ENE,58,9.0,15.0,41,-99.99,,,-99.99,,2013-01-12 19:52:00,
2013-01-12 12:02:00,36.0,14.0,-100.00,ENE,63,10.0,15.0,40,-99.99,,,-99.99,,2013-01-12 20:02:00,
2013-01-12 12:12:00,36.0,14.0,-100.00,NE,51,8.0,15.0,40,-99.99,,,-99.99,,2013-01-12 20:12:00,
2013-01-12 12:22:00,36.0,14.0,-100.00,ENE,57,8.0,14.0,40,-99.99,,,-99.99,,2013-01-12 20:22:00,
2013-01-12 12:32:00,37.0,15.0,-100.00,NE,51,8.0,12.0,40,-99.99,,,-99.99,,2013-01-12 20:32:00,
2013-01-12 12:42:00,37.0,14.0,-100.00,NE,38,6.0,11.0,38,-99.99,,,-99.99,,2013-01-12 20:42:00,
2013-01-12 12:53:00,37.0,13.0,-100.00,NE,42,8.0,12.0,37,-99.99,,,-99.99,,2013-01-12 20:53:00,
2013-01-12 13:02:00,37.0,13.0,-100.00,NNE,31,8.0,12.0,37,-99.99,,,-99.99,,2013-01-12 21:02:00,
2013-01-12 13:12:00,38.0,14.0,-100.00,ENE,67,7.0,12.0,37,-99.99,,,-99.99,,2013-01-12 21:12:00,
2013-01-12 13:22:00,37.0,12.0,-100.00,ENE,69,8.0,13.0,35,-99.99,,,-99.99,,2013-01-12 21:22:00,
2013-01-12 13:32:00,38.0,13.0,-100.00,ENE,64,7.0,11.0,36,-99.99,,,-99.99,,2013-01-12 21:32:00,
2013-01-12 13:42:00,37.0,12.0,-100.00,East,86,8.0,14.0,35,-99.99,,,-99.99,,2013-01-12 21:42:00,
2013-01-12 13:52:00,37.0,11.0,-100.00,East,84,8.0,12.0,34,-99.99,,,-99.99,,2013-01-12 21:52:00,
2013-01-12 14:02:00,37.0,12.0,-100.00,ENE,67,7.0,13.0,35,-99.99,,,-99.99,,2013-01-12 22:02:00,
2013-01-12 14:12:00,38.0,13.0,-100.00,East,83,8.0,15.0,36,-99.99,,,-99.99,,2013-01-12 22:12:00,
2013-01-12 14:22:00,38.0,13.0,-100.00,ENE,73,7.0,11.0,35,-99.99,,,-99.99,,2013-01-12 22:22:00,
2013-01-12 14:32:00,38.0,13.0,-100.00,ENE,71,6.0,9.0,35,-99.99,,,-99.99,,2013-01-12 22:32:00,
2013-01-12 14:42:00,38.0,12.0,-100.00,NNE,21,4.0,9.0,34,-99.99,,,-99.99,,2013-01-12 22:42:00,
2013-01-12 14:52:00,38.0,12.0,-100.00,East,99,6.0,10.0,34,-99.99,,,-99.99,,2013-01-12 22:52:00,
2013-01-12 15:02:00,38.0,13.0,-100.00,ENE,62,6.0,10.0,35,-99.99,,,-99.99,,2013-01-12 23:02:00,
2013-01-12 15:12:00,38.0,12.0,-100.00,East,97,6.0,12.0,34,-99.99,,,-99.99,,2013-01-12 23:12:00,
2013-01-12 15:22:00,38.0,12.0,-100.00,East,97,6.0,12.0,34,-99.99,,,-99.99,,2013-01-12 23:22:00,
2013-01-12 15:32:00,39.0,12.0,-100.00,East,80,3.0,7.0,32,-99.99,,,-99.99,,2013-01-12 23:32:00,
2013-01-12 15:42:00,39.0,12.0,-100.00,East,80,3.0,7.0,32,-99.99,,,-99.99,,2013-01-12 23:42:00,
2013-01-12 15:53:00,39.0,12.0,-100.00,ESE,107,3.0,5.0,32,-99.99,,,-99.99,,2013-01-12 23:53:00,
2013-01-12 16:02:00,40.0,12.0,-100.00,East,93,2.0,6.0,31,-99.99,,,-99.99,,2013-01-13 00:02:00,
2013-01-12 16:12:00,39.0,12.0,-100.00,East,101,4.0,7.0,32,-99.99,,,-99.99,,2013-01-13 00:12:00,
2013-01-12 16:22:00,39.0,12.0,-100.00,East,82,3.0,7.0,32,-99.99,,,-99.99,,2013-01-13 00:22:00,
2013-01-12 16:32:00,38.0,11.0,-100.00,East,83,3.0,4.0,32,-99.99,,,-99.99,,2013-01-13 00:32:00,
2013-01-12 16:42:00,38.0,11.0,-100.00,East,83,3.0,4.0,32,-99.99,,,-99.99,,2013-01-13 00:42:00,
2013-01-12 16:52:00,39.0,12.0,-100.00,ESE,112,3.0,4.0,32,-99.99,,,-99.99,,2013-01-13 00:52:00,
2013-01-12 17:02:00,39.0,12.0,-100.00,ESE,112,3.0,4.0,32,-99.99,,,-99.99,,2013-01-13 01:02:00,
2013-01-12 17:12:00,38.0,12.0,-100.00,ENE,70,3.0,4.0,34,-99.99,,,-99.99,,2013-01-13 01:12:00,
2013-01-12 17:22:00,36.0,13.0,-100.00,NE,35,2.0,3.0,38,-99.99,,,-99.99,,2013-01-13 01:22:00,
2013-01-12 17:32:00,35.0,13.0,-100.00,NE,40,2.0,4.0,39,-99.99,,,-99.99,,2013-01-13 01:32:00,
2013-01-12 17:42:00,35.0,13.0,-100.00,NNE,24,2.0,4.0,40,-99.99,,,-99.99,,2013-01-13 01:42:00,
2013-01-12 17:52:00,34.0,13.0,-100.00,NNE,21,2.0,4.0,42,-99.99,,,-99.99,,2013-01-13 01:52:00,
2013-01-12 18:02:00,34.0,13.0,-100.00,NNE,21,2.0,4.0,42,-99.99,,,-99.99,,2013-01-13 02:02:00,
2013-01-12 18:12:00,33.0,13.0,-100.00,NW,318,2.0,4.0,43,-99.99,,,-99.99,,2013-01-13 02:12:00,
2013-01-12 18:22:00,33.0,13.0,-100.00,WNW,288,2.0,4.0,43,-99.99,,,-99.99,,2013-01-13 02:22:00,
2013-01-12 18:32:00,33.0,13.0,-100.00,WSW,248,3.0,6.0,43,-99.99,,,-99.99,,2013-01-13 02:32:00,
2013-01-12 18:42:00,34.0,13.0,-100.00,WNW,293,1.0,3.0,41,-99.99,,,-99.99,,2013-01-13 02:42:00,
2013-01-12 18:52:00,33.0,12.0,-100.00,WNW,287,2.0,3.0,42,-99.99,,,-99.99,,2013-01-13 02:52:00,
2013-01-12 19:02:00,33.0,12.0,-100.00,NW,305,2.0,3.0,42,-99.99,,,-99.99,,2013-01-13 03:02:00,
2013-01-12 19:12:00,33.0,13.0,-100.00,NW,314,3.0,4.0,43,-99.99,,,-99.99,,2013-01-13 03:12:00,
2013-01-12 19:22:00,32.0,13.0,-100.00,NW,315,3.0,4.0,44,-99.99,,,-99.99,,2013-01-13 03:22:00,
2013-01-12 19:32:00,31.0,13.0,-100.00,NW,304,4.0,4.0,47,-99.99,,,-99.99,,2013-01-13 03:32:00,
2013-01-12 19:42:00,31.0,13.0,-100.00,NW,304,4.0,4.0,47,-99.99,,,-99.99,,2013-01-13 03:42:00,
2013-01-12 19:52:00,32.0,13.0,-100.00,NW,321,3.0,4.0,44,-99.99,,,-99.99,,2013-01-13 03:52:00,
2013-01-12 20:02:00,32.0,13.0,-100.00,NW,321,3.0,4.0,44,-99.99,,,-99.99,,2013-01-13 04:02:00,
2013-01-12 20:12:00,31.0,12.0,-100.00,NW,324,3.0,4.0,45,-99.99,,,-99.99,,2013-01-13 04:12:00,
2013-01-12 20:22:00,31.0,13.0,-100.00,NW,317,4.0,5.0,47,-99.99,,,-99.99,,2013-01-13 04:22:00,
2013-01-12 20:32:00,30.0,13.0,-100.00,NW,305,4.0,5.0,48,-99.99,,,-99.99,,2013-01-13 04:32:00,
2013-01-12 20:42:00,31.0,13.0,-100.00,NW,304,4.0,5.0,47,-99.99,,,-99.99,,2013-01-13 04:42:00,
2013-01-12 20:52:00,31.0,13.0,-100.00,NW,304,4.0,5.0,46,-99.99,,,-99.99,,2013-01-13 04:52:00,
2013-01-12 21:03:00,31.0,13.0,-100.00,WNW,302,3.0,4.0,46,-99.99,,,-99.99,,2013-01-13 05:03:00,
2013-01-12 21:12:00,31.0,13.0,-100.00,NW,310,3.0,4.0,46,-99.99,,,-99.99,,2013-01-13 05:12:00,
2013-01-12 21:22:00,31.0,13.0,-100.00,NNW,331,3.0,5.0,46,-99.99,,,-99.99,,2013-01-13 05:22:00,
2013-01-12 21:32:00,29.0,14.0,-100.00,NNW,329,5.0,6.0,52,-99.99,,,-99.99,,2013-01-13 05:32:00,
2013-01-12 21:42:00,29.0,14.0,-100.00,NNW,329,5.0,6.0,52,-99.99,,,-99.99,,2013-01-13 05:42:00,
2013-01-12 21:52:00,28.0,14.0,-100.00,NW,311,4.0,5.0,55,-99.99,,,-99.99,,2013-01-13 05:52:00,
2013-01-12 22:02:00,29.0,14.0,-100.00,NW,319,3.0,5.0,52,-99.99,,,-99.99,,2013-01-13 06:02:00,
2013-01-12 22:12:00,30.0,13.0,-100.00,NW,325,3.0,4.0,49,-99.99,,,-99.99,,2013-01-13 06:12:00,
2013-01-12 22:22:00,30.0,13.0,-100.00,NW,322,3.0,5.0,49,-99.99,,,-99.99,,2013-01-13 06:22:00,
2013-01-12 22:32:00,29.0,13.0,-100.00,NNW,336,4.0,6.0,50,-99.99,,,-99.99,,2013-01-13 06:32:00,
2013-01-12 22:42:00,29.0,14.0,-100.00,NNW,329,5.0,6.0,52,-99.99,,,-99.99,,2013-01-13 06:42:00,
2013-01-12 22:52:00,29.0,14.0,-100.00,NW,322,4.0,5.0,52,-99.99,,,-99.99,,2013-01-13 06:52:00,
2013-01-12 23:02:00,29.0,14.0,-100.00,NW,321,5.0,6.0,52,-99.99,,,-99.99,,2013-01-13 07:02:00,
2013-01-12 23:12:00,29.0,13.0,-100.00,NW,320,4.0,6.0,50,-99.99,,,-99.99,,2013-01-13 07:12:00,
2013-01-12 23:22:00,29.0,13.0,-100.00,NW,319,5.0,6.0,50,-99.99,,,-99.99,,2013-01-13 07:22:00,
2013-01-12 23:32:00,29.0,14.0,-100.00,NW,322,5.0,6.0,53,-99.99,,,-99.99,,2013-01-13 07:32:00,
2013-01-12 23:42:00,29.0,14.0,-100.00,NW,322,5.0,6.0,53,-99.99,,,-99.99,,2013-01-13 07:42:00,
2013-01-12 23:52:00,29.0,14.0,-100.00,NW,322,5.0,6.0,53,-99.99,,,-99.99,,2013-01-13 07:52:00,